CW6538 Cattolica IT current weather conditions

sailwx.info

Wind from 302 at 5 knots gusting 8

Air temperature 8.3° C
Dewpoint 5.4° C

Last reported at 2016-Dec-04 02:53 UTC.
Time now 2016-Dec-04 03:53 UTC

Location: N 43°58' E 012°44'.
View on Google Maps.

See reports from other nearby stations

  
Tides and Currents Weather Stations Pressure Air Temp Water Temp Dewpoint Dewpoint Depression Visibility Wind Speed Wind Dir Waves Ship Positions
date/time (UTC)wind fromknots sea level pressurealtimeterstation pressurevisibilityair tempwater tempwave heightnotes
2016-Dec-04 02:53 302 5 gusting 8 8.3
2016-Dec-04 02:48 302 3 gusting 9 8.3
2016-Dec-04 02:43 331 6 gusting 10 8.3
2016-Dec-04 02:38 287 5 gusting 12 8.3
2016-Dec-04 02:34 297 4 gusting 9 8.3
2016-Dec-04 02:28 298 2 gusting 7 8.3
2016-Dec-04 02:24 296 3 gusting 8 8.3
2016-Dec-04 02:18 275 3 gusting 8 8.3
2016-Dec-04 02:13 279 1 gusting 7 8.3
2016-Dec-04 02:08 309 4 gusting 6 8.3
2016-Dec-04 02:03 303 1 gusting 6 8.3
2016-Dec-04 01:58 284 0 gusting 6 8.3
2016-Dec-04 01:53 300 1 gusting 4 8.3
2016-Dec-04 01:49 291 1 gusting 4 8.3
2016-Dec-04 01:43 312 8.3
2016-Dec-04 01:39 288 0 gusting 5 8.3
2016-Dec-04 01:33 288 0 gusting 5 8.3
2016-Dec-04 01:28 288 1 gusting 5 8.3
2016-Dec-04 01:23 279 3 gusting 6 8.3
2016-Dec-04 01:18 301 1 gusting 6 8.3
2016-Dec-04 01:14 235 8.3
2016-Dec-04 01:08 296 1 gusting 5 8.3
2016-Dec-04 01:04 283 1 gusting 6 8.3
2016-Dec-04 00:58 291 0 gusting 6 8.3
2016-Dec-04 00:54 316 3 gusting 6 8.3
2016-Dec-04 00:48 333 3 gusting 6 8.3
2016-Dec-04 00:43 324 1 gusting 8 8.3
2016-Dec-04 00:39 285 5 gusting 8 8.3
2016-Dec-04 00:33 306 3 gusting 11 8.3
2016-Dec-04 00:28 317 6 gusting 11 8.3
2016-Dec-04 00:24 300 4 gusting 5 8.3
2016-Dec-04 00:18 344 1 gusting 5 8.3
2016-Dec-04 00:13 259 0 gusting 5 8.3
2016-Dec-04 00:09 259 0 gusting 6 8.3
2016-Dec-04 00:03 242 2 gusting 6 8.3
2016-Dec-03 23:58 266 1 gusting 6 8.3
2016-Dec-03 23:54 254 0 gusting 7 8.3
2016-Dec-03 23:48 287 0 gusting 7 8.3
2016-Dec-03 23:44 301 2 gusting 6 8.3
2016-Dec-03 23:39 275 2 gusting 6 8.3
2016-Dec-03 23:34 299 1 gusting 4 8.3
2016-Dec-03 23:29 304 2 gusting 8 8.3
2016-Dec-03 23:24 296 2 gusting 6 8.3
2016-Dec-03 23:18 302 4 gusting 6 8.3
2016-Dec-03 23:14 311 1 gusting 6 8.3
2016-Dec-03 23:08 282 4 gusting 6 8.3
2016-Dec-03 23:04 285 4 gusting 6 8.3
2016-Dec-03 22:59 265 2 gusting 6 8.3
2016-Dec-03 22:53 276 4 gusting 8 8.3
2016-Dec-03 22:49 287 2 gusting 9 8.3
2016-Dec-03 22:43 318 6 gusting 9 8.3
2016-Dec-03 22:39 304 4 gusting 7 8.3
2016-Dec-03 22:33 281 4 gusting 7 8.3
2016-Dec-03 22:29 287 4 gusting 9 8.3
2016-Dec-03 22:23 344 5 gusting 11 8.3
2016-Dec-03 22:19 308 4 gusting 13 8.3
2016-Dec-03 22:14 296 6 gusting 13 8.3
2016-Dec-03 22:08 303 5 gusting 9 8.3
2016-Dec-03 22:04 327 5 gusting 9 8.3
2016-Dec-03 21:59 336 5 gusting 9 8.3
2016-Dec-03 21:54 300 4 gusting 9 7.8
2016-Dec-03 21:48 317 6 gusting 10 7.8
2016-Dec-03 21:44 311 5 gusting 10 7.8
2016-Dec-03 21:38 286 3 gusting 9 7.8
2016-Dec-03 21:34 278 6 gusting 9 7.8
2016-Dec-03 21:28 291 5 gusting 8 8.3
2016-Dec-03 21:24 276 5 gusting 8 8.3
2016-Dec-03 21:19 308 4 gusting 7 8.3
2016-Dec-03 21:13 292 8.3
2016-Dec-03 21:09 289 4 gusting 6 8.3
2016-Dec-03 21:03 270 2 gusting 8 8.3
2016-Dec-03 20:59 301 3 gusting 7 8.3
2016-Dec-03 20:53 275 4 gusting 9 8.3
2016-Dec-03 20:49 300 5 gusting 9 8.3
2016-Dec-03 20:43 332 5 gusting 9 8.3
2016-Dec-03 20:39 265 4 gusting 9 8.3
2016-Dec-03 20:33 275 4 gusting 9 8.3
2016-Dec-03 20:29 293 4 gusting 9 8.3
2016-Dec-03 20:24 299 6 gusting 10 8.3
2016-Dec-03 20:19 319 5 gusting 12 8.3
2016-Dec-03 20:13 310 6 gusting 9 8.3
2016-Dec-03 20:09 286 4 gusting 9 8.3
2016-Dec-03 20:04 315 5 gusting 10 8.3
2016-Dec-03 19:59 312 6 gusting 10 8.3
2016-Dec-03 19:54 292 6 gusting 8 8.3
2016-Dec-03 19:48 288 1 gusting 8 8.3
2016-Dec-03 19:44 322 4 gusting 8 8.3
2016-Dec-03 19:38 292 4 gusting 6 8.3
2016-Dec-03 19:34 282 3 gusting 7 8.3
2016-Dec-03 19:28 300 4 gusting 7 8.3
2016-Dec-03 19:24 292 3 gusting 8 8.3
2016-Dec-03 19:18 306 5 gusting 8 8.3
2016-Dec-03 19:14 286 4 gusting 6 8.3
2016-Dec-03 19:09 292 3 gusting 7 8.3
2016-Dec-03 19:04 338 4 gusting 7 8.3
2016-Dec-03 18:59 314 4 gusting 8 8.3
2016-Dec-03 18:54 325 4 gusting 6 8.3
2016-Dec-03 18:48 331 4 gusting 7 8.3
2016-Dec-03 18:44 271 5 gusting 7 8.3
2016-Dec-03 18:38 319 4 gusting 6 8.3
2016-Dec-03 18:34 284 2 gusting 8 8.3
2016-Dec-03 18:28 299 1 gusting 8 8.3
2016-Dec-03 18:24 307 5 gusting 8 8.3
2016-Dec-03 18:18 291 1 gusting 10 8.3
2016-Dec-03 18:14 281 5 gusting 10 8.3
2016-Dec-03 18:08 313 4 gusting 9 8.3
2016-Dec-03 18:04 322 3 gusting 8 8.3
2016-Dec-03 17:59 313 2 gusting 8 8.3
2016-Dec-03 17:53 308 4 gusting 7 8.3
2016-Dec-03 17:49 304 4 gusting 7 8.3
2016-Dec-03 17:43 309 5 gusting 8 8.3
2016-Dec-03 17:39 335 2 gusting 6 8.3
2016-Dec-03 17:33 308 2 gusting 5 8.3
2016-Dec-03 17:29 313 0 gusting 6 8.3
2016-Dec-03 17:23 308 3 gusting 6 8.3
2016-Dec-03 17:19 340 3 gusting 6 8.3
2016-Dec-03 17:14 302 2 gusting 6 8.3
2016-Dec-03 17:09 302 2 gusting 6 8.3
2016-Dec-03 17:04 298 3 gusting 7 8.3
2016-Dec-03 16:58 261 4 gusting 7 8.3
2016-Dec-03 16:54 294 4 gusting 6 8.3
2016-Dec-03 16:49 269 0 gusting 6 8.3
2016-Dec-03 16:44 297 3 gusting 7 8.9
2016-Dec-03 16:38 290 4 gusting 7 8.9
2016-Dec-03 16:34 298 4 gusting 7 8.9
2016-Dec-03 16:29 285 3 gusting 7 8.9
2016-Dec-03 16:23 288 0 gusting 5 8.9
2016-Dec-03 16:19 334 3 gusting 7 8.9
2016-Dec-03 16:13 297 3 gusting 6 8.9
2016-Dec-03 16:09 304 3 gusting 6 8.9
2016-Dec-03 16:04 298 2 gusting 6 8.9
2016-Dec-03 15:58 283 3 gusting 7 8.9
2016-Dec-03 15:54 302 4 gusting 6 8.9
2016-Dec-03 15:48 286 3 gusting 6 8.9
2016-Dec-03 15:44 296 4 gusting 6 8.9
2016-Dec-03 15:38 304 2 gusting 6 8.9
2016-Dec-03 15:34 281 3 gusting 6 8.9
2016-Dec-03 15:28 318 3 gusting 6 8.9
2016-Dec-03 15:24 292 3 gusting 6 9.4
2016-Dec-03 15:18 315 0 gusting 6 9.4
2016-Dec-03 15:14 322 2 gusting 5 9.4
2016-Dec-03 15:08 338 1 gusting 5 9.4
2016-Dec-03 15:04 303 0 gusting 6 9.4
2016-Dec-03 14:58 292 2 gusting 6 9.4
2016-Dec-03 14:54 277 2 gusting 4 9.4
2016-Dec-03 14:48 285 9.4
2016-Dec-03 14:43 285 1 gusting 4 9.4
2016-Dec-03 14:39 005 0 gusting 5 9.4
2016-Dec-03 14:34 005 9.4
2016-Dec-03 14:29 304 0 gusting 6 9.4
2016-Dec-03 14:23 308 2 gusting 6 9.4
2016-Dec-03 14:19 337 1 gusting 7 9.4
2016-Dec-03 14:14 300 3 gusting 8 9.4
2016-Dec-03 14:09 309 4 gusting 8 9.4
2016-Dec-03 14:04 291 3 gusting 6 9.4
2016-Dec-03 13:59 270 3 gusting 7 9.4
2016-Dec-03 13:54 298 5 gusting 7 9.4
2016-Dec-03 13:49 275 4 gusting 9 9.4
2016-Dec-03 13:43 328 5 gusting 9 9.4
2016-Dec-03 13:39 289 3 gusting 7 9.4
2016-Dec-03 13:34 311 3 gusting 7 9.4
2016-Dec-03 13:29 350 4 gusting 6 9.4
2016-Dec-03 13:24 309 3 gusting 6 9.4
2016-Dec-03 13:19 288 3 gusting 6 9.4
2016-Dec-03 13:14 318 2 gusting 7 9.4
2016-Dec-03 13:09 350 5 gusting 7 9.4
2016-Dec-03 13:03 323 5 gusting 8 9.4
2016-Dec-03 12:59 308 4 gusting 8 9.4
2016-Dec-03 12:53 335 5 gusting 9 9.4
2016-Dec-03 12:49 311 5 gusting 10 9.4
2016-Dec-03 12:43 330 6 gusting 9 9.4
2016-Dec-03 12:39 320 6 gusting 8 9.4
2016-Dec-03 12:33 316 5 gusting 11 9.4
2016-Dec-03 12:29 315 6 gusting 11 9.4
2016-Dec-03 12:23 320 6 gusting 9 9.4
2016-Dec-03 12:19 329 4 gusting 8 9.4
2016-Dec-03 12:14 332 4 gusting 8 9.4
2016-Dec-03 12:08 350 3 gusting 9 9.4
2016-Dec-03 12:04 333 6 gusting 9 9.4
2016-Dec-03 11:58 327 4 gusting 10 9.4
2016-Dec-03 11:54 360 6 gusting 10 9.4
2016-Dec-03 11:48 338 7 gusting 13 9.4
2016-Dec-03 11:44 326 8 gusting 13 9.4
2016-Dec-03 11:38 360 7 gusting 12 9.4
2016-Dec-03 11:34 315 6 gusting 12 9.4
2016-Dec-03 11:28 337 7 gusting 12 9.4
2016-Dec-03 11:24 340 6 gusting 11 9.4
2016-Dec-03 11:18 340 7 gusting 11 9.4
2016-Dec-03 11:14 005 6 gusting 11 9.4
2016-Dec-03 11:08 005 6 gusting 10 9.4
2016-Dec-03 11:04 342 6 gusting 10 9.4
2016-Dec-03 10:58 005 6 gusting 12 9.4
2016-Dec-03 10:54 351 6 gusting 12 9.4
2016-Dec-03 10:49 328 4 gusting 10 9.4
2016-Dec-03 10:43 323 6 gusting 10 9.4
2016-Dec-03 10:39 346 6 gusting 9 9.4
2016-Dec-03 10:33 316 4 gusting 7 9.4
2016-Dec-03 10:28 346 3 gusting 6 9.4
2016-Dec-03 10:24 318 2 gusting 5 9.4
2016-Dec-03 10:18 334 0 gusting 2 9.4
2016-Dec-03 10:13 334 0 gusting 4 8.9
2016-Dec-03 10:09 332 2 gusting 4 8.9
2016-Dec-03 10:04 331 8.9
2016-Dec-03 09:58 332 8.9
2016-Dec-03 09:54 321 0 gusting 4 8.9
2016-Dec-03 09:48 321 8.9
2016-Dec-03 09:43 348 0 gusting 4 8.3
2016-Dec-03 09:39 256 8.3
2016-Dec-03 09:34 256 8.3
2016-Dec-03 09:28 241 8.3
2016-Dec-03 09:23 234 7.8
2016-Dec-03 09:19 234 7.8
2016-Dec-03 09:13 234 7.8
2016-Dec-03 09:08 234 7.8
2016-Dec-03 09:03 234 1 gusting 3 7.8
2016-Dec-03 08:59 185 7.8
2016-Dec-03 08:54 185 7.2
2016-Dec-03 08:48 185 7.2
2016-Dec-03 08:43 185 7.2
2016-Dec-03 08:39 185 7.2
2016-Dec-03 08:34 185 7.2
2016-Dec-03 08:29 185 6.7
2016-Dec-03 08:23 185 6.7
2016-Dec-03 08:19 185 6.7
2016-Dec-03 08:14 185 6.7
2016-Dec-03 08:08 185 6.1
2016-Dec-03 08:04 185 6.1
2016-Dec-03 07:58 185 6.1
2016-Dec-03 07:54 185 6.1
2016-Dec-03 07:49 185 6.1
2016-Dec-03 07:44 185 6.1
2016-Dec-03 07:39 185 6.1
2016-Dec-03 07:33 162 5.6
2016-Dec-03 07:28 162 5.6
2016-Dec-03 07:24 162 5.6
2016-Dec-03 07:19 162 5.6
2016-Dec-03 07:13 162 5.6
2016-Dec-03 07:09 162 5.6
2016-Dec-03 07:04 162 5.6
2016-Dec-03 06:58 162 5.6
2016-Dec-03 06:53 162 5.6
2016-Dec-03 06:49 162 5.6
2016-Dec-03 06:43 162 5.6
2016-Dec-03 06:39 162 5.6
2016-Dec-03 06:33 162 5.6
2016-Dec-03 06:29 162 5.6
2016-Dec-03 06:24 162 5.6
2016-Dec-03 06:19 162 5.6
2016-Dec-03 06:14 162 5.6
2016-Dec-03 06:09 162 5.6
2016-Dec-03 06:03 162 5.6
2016-Dec-03 05:59 162 5.6
2016-Dec-03 05:53 162 5.6
2016-Dec-03 05:49 162 5.6
2016-Dec-03 05:44 162 5.6
2016-Dec-03 05:38 162 5.6
2016-Dec-03 05:33 162 5.6
2016-Dec-03 05:24 162 5.6
2016-Dec-03 05:18 162 5.6
2016-Dec-03 05:14 162 5.6
2016-Dec-03 05:08 162 5.6
2016-Dec-03 05:04 162 5.6
2016-Dec-03 04:58 162 5.6
2016-Dec-03 04:54 162 1 gusting 2 5.6
2016-Dec-03 04:48 175 0 gusting 3 5.6
2016-Dec-03 04:43 175 1 gusting 3 5.6
2016-Dec-03 04:39 175 0 gusting 3 5.6
2016-Dec-03 04:34 174 1 gusting 4 5.6
2016-Dec-03 04:28 155 2 gusting 5 5.6
2016-Dec-03 04:24 141 2 gusting 5 5.0
2016-Dec-03 04:19 159 2 gusting 4 5.0
2016-Dec-03 04:13 157 2 gusting 4 5.0
2016-Dec-03 04:09 158 0 gusting 4 5.0
2016-Dec-03 04:04 159 2 gusting 4 5.0
2016-Dec-03 03:58 168 1 gusting 4 5.0
2016-Dec-03 03:54 174 1 gusting 4 5.0
2016-Dec-03 03:49 184 1 gusting 4 5.0
2016-Dec-03 03:43 188 1 gusting 3 5.0
2016-Dec-03 03:39 226 0 gusting 4 5.0
2016-Dec-03 03:33 226 1 gusting 4 5.0
2016-Dec-03 03:28 198 0 gusting 3 5.0
2016-Dec-03 03:24 195 0 gusting 1 4.4
2016-Dec-03 03:19 194 4.4
2016-Dec-03 03:13 194 4.4
2016-Dec-03 03:09 195 4.4
2016-Dec-03 03:03 195 4.4
2016-Dec-03 02:59 194 4.4
2016-Dec-03 02:54 194 0 gusting 1 3.9
2016-Dec-03 02:49 193 3.9
2016-Dec-03 02:44 193 3.9
2016-Dec-03 02:38 193 3.9
2016-Dec-03 02:34 193 3.9
2016-Dec-03 02:29 193 3.9
2016-Dec-03 02:24 193 3.9
2016-Dec-03 02:18 202 3.9
2016-Dec-03 02:13 202 3.9
2016-Dec-03 02:09 202 0 gusting 4 3.9
2016-Dec-03 02:03 249 0 gusting 3 3.9
2016-Dec-03 01:59 249 3.9
2016-Dec-03 01:53 249 3.9
2016-Dec-03 01:49 249 0 gusting 1 3.9
2016-Dec-03 01:44 249 0 gusting 1 3.9
2016-Dec-03 01:38 251 3.9
2016-Dec-03 01:33 251 3.9
2016-Dec-03 01:29 264 0 gusting 4 3.9
2016-Dec-03 01:23 322 0 gusting 4 3.3
2016-Dec-03 01:19 284 0 gusting 1 3.3
2016-Dec-03 01:13 198 3.3
2016-Dec-03 01:09 197 3.3
2016-Dec-03 01:03 197 3.3
2016-Dec-03 00:53 198 3.3
2016-Dec-03 00:49 197 3.3
2016-Dec-03 00:43 198 3.3
2016-Dec-03 00:39 198 3.3
2016-Dec-03 00:34 198 0 gusting 1 3.3
2016-Dec-03 00:28 197 3.3
2016-Dec-03 00:24 198 3.3
2016-Dec-03 00:19 198 0 gusting 1 3.3
2016-Dec-03 00:13 198 3.3
2016-Dec-03 00:09 197 3.3
2016-Dec-03 00:03 197 3.3
2016-Dec-02 23:58 197 0 gusting 3 3.3
2016-Dec-02 23:54 198 1 gusting 3 3.3
2016-Dec-02 23:49 190 1 gusting 3 3.9
2016-Dec-02 23:43 190 1 gusting 2 3.9
2016-Dec-02 23:39 190 3.9
2016-Dec-02 23:33 190 3.9
2016-Dec-02 23:28 183 3.9
2016-Dec-02 23:24 183 3.9
2016-Dec-02 23:18 183 3.9
2016-Dec-02 23:14 183 3.9
2016-Dec-02 23:09 183 3.9
2016-Dec-02 23:03 183 3.9
2016-Dec-02 22:59 183 3.9
2016-Dec-02 22:53 183 3.9
2016-Dec-02 22:49 183 0 gusting 3 3.9
2016-Dec-02 22:43 183 4.4
2016-Dec-02 22:39 183 4.4
2016-Dec-02 22:33 183 4.4
2016-Dec-02 22:29 183 0 gusting 1 4.4
2016-Dec-02 22:23 183 4.4
2016-Dec-02 22:19 183 4.4
2016-Dec-02 22:13 183 4.4
2016-Dec-02 22:09 183 4.4
2016-Dec-02 22:03 183 4.4
2016-Dec-02 21:59 183 4.4
2016-Dec-02 21:54 183 1 gusting 3 4.4
2016-Dec-02 21:49 183 5.0
2016-Dec-02 21:43 183 5.0
2016-Dec-02 21:39 183 5.0
2016-Dec-02 21:33 183 5.0
2016-Dec-02 21:28 183 5.0
2016-Dec-02 21:24 183 1 gusting 4 5.0
2016-Dec-02 21:18 183 2 gusting 4 5.0
2016-Dec-02 21:14 188 1 gusting 2 5.0
2016-Dec-02 21:08 188 1 gusting 3 5.0
2016-Dec-02 21:04 184 1 gusting 2 5.0
2016-Dec-02 20:58 183 1 gusting 2 5.0
2016-Dec-02 20:54 183 2 gusting 3 5.0
2016-Dec-02 20:48 183 1 gusting 2 5.0
2016-Dec-02 20:43 183 1 gusting 2 5.0
2016-Dec-02 20:38 183 1 gusting 2 5.0
2016-Dec-02 20:34 183 1 gusting 2 5.0
2016-Dec-02 20:28 183 1 gusting 3 5.6
2016-Dec-02 20:24 183 1 gusting 3 5.6
2016-Dec-02 20:18 197 1 gusting 3 5.6
2016-Dec-02 20:13 197 5.6
2016-Dec-02 20:09 197 5.6
2016-Dec-02 20:04 197 5.6
2016-Dec-02 19:59 197 6.1
2016-Dec-02 19:53 197 6.1
2016-Dec-02 19:49 197 6.1
2016-Dec-02 19:43 197 6.1
2016-Dec-02 19:39 198 1 gusting 3 6.1
2016-Dec-02 19:34 197 0 gusting 1 6.1
2016-Dec-02 19:29 197 6.1
2016-Dec-02 19:24 198 6.7
2016-Dec-02 19:19 197 6.7
2016-Dec-02 19:13 198 6.7
2016-Dec-02 19:08 197 6.7
2016-Dec-02 19:04 197 6.7
2016-Dec-02 18:58 197 6.7
2016-Dec-02 18:54 197 7.2
2016-Dec-02 18:49 198 0 gusting 3 7.2
2016-Dec-02 18:43 179 7.2
2016-Dec-02 18:39 172 7.2
2016-Dec-02 18:33 172 7.2
2016-Dec-02 18:29 173 7.2
2016-Dec-02 18:24 172 7.2
2016-Dec-02 18:19 173 7.8
2016-Dec-02 18:14 172 7.8
2016-Dec-02 18:09 172 7.8
2016-Dec-02 18:03 172 7.8
2016-Dec-02 17:58 172 7.8
2016-Dec-02 17:54 172 7.8
2016-Dec-02 17:48 172 8.3
2016-Dec-02 17:44 172 8.3
2016-Dec-02 17:39 172 8.3
2016-Dec-02 17:34 172 1 gusting 2 8.3
2016-Dec-02 17:29 144 8.3
2016-Dec-02 17:23 138 8.9
2016-Dec-02 17:19 138 8.9
2016-Dec-02 17:13 138 1 gusting 2 8.9
2016-Dec-02 17:09 107 0 gusting 1 9.4
2016-Dec-02 17:04 107 9.4
2016-Dec-02 16:59 094 9.4
2016-Dec-02 16:53 094 9.4
2016-Dec-02 16:49 093 9.4
2016-Dec-02 16:43 094 10.0
2016-Dec-02 16:39 094 10.0
2016-Dec-02 16:33 094 1 gusting 2 10.0
2016-Dec-02 16:29 093 1 gusting 2 10.0
2016-Dec-02 16:23 094 0 gusting 3 10.0
2016-Dec-02 16:19 093 1 gusting 3 10.6
2016-Dec-02 16:13 093 0 gusting 2 10.6
2016-Dec-02 16:09 065 0 gusting 1 10.6
2016-Dec-02 16:04 065 10.6
2016-Dec-02 15:59 065 10.6
2016-Dec-02 15:54 065 11.1
2016-Dec-02 15:48 065 11.1
2016-Dec-02 15:44 065 11.1
2016-Dec-02 15:39 065 0 gusting 1 11.1
2016-Dec-02 15:33 065 11.1
2016-Dec-02 15:29 065 11.1
2016-Dec-02 15:23 065 1 gusting 3 11.1
2016-Dec-02 15:19 065 0 gusting 4 11.1
2016-Dec-02 15:13 068 1 gusting 3 11.1
2016-Dec-02 15:08 068 11.1
2016-Dec-02 15:04 068 11.1
2016-Dec-02 14:59 068 0 gusting 4 11.7
2016-Dec-02 14:53 068 1 gusting 4 11.7
2016-Dec-02 14:49 055 2 gusting 6 11.7
2016-Dec-02 14:43 063 3 gusting 6 11.7
2016-Dec-02 14:39 057 2 gusting 5 11.7
2016-Dec-02 14:33 032 3 gusting 6 11.7
2016-Dec-02 14:29 061 2 gusting 6 11.7
2016-Dec-02 14:24 036 2 gusting 6 11.7
2016-Dec-02 14:19 049 4 gusting 6 11.7
2016-Dec-02 14:14 082 2 gusting 6 11.7
2016-Dec-02 14:08 057 2 gusting 6 11.7
2016-Dec-02 14:04 057 4 gusting 6 12.2
2016-Dec-02 13:58 042 1 gusting 6 11.7
2016-Dec-02 13:54 052 3 gusting 6 11.7
2016-Dec-02 13:48 038 3 gusting 6 11.7
2016-Dec-02 13:44 035 4 gusting 6 11.7
2016-Dec-02 13:38 041 4 gusting 5 11.7
2016-Dec-02 13:34 044 3 gusting 5 11.7
2016-Dec-02 13:29 043 2 gusting 6 11.7
2016-Dec-02 13:23 030 4 gusting 6 11.7
2016-Dec-02 13:19 051 2 gusting 5 11.7
2016-Dec-02 13:14 037 2 gusting 5 11.7
2016-Dec-02 13:08 039 3 gusting 6 11.7
2016-Dec-02 13:03 034 2 gusting 6 11.7
2016-Dec-02 12:59 026 3 gusting 6 11.7
2016-Dec-02 12:53 013 3 gusting 5 12.2
2016-Dec-02 12:49 055 2 gusting 4 12.2
2016-Dec-02 12:43 030 2 gusting 4 11.7
2016-Dec-02 12:39 017 3 gusting 4 12.2
2016-Dec-02 12:34 018 0 gusting 4 12.2
2016-Dec-02 12:28 018 2 gusting 4 12.2
2016-Dec-02 12:24 018 1 gusting 6 11.7
2016-Dec-02 12:19 022 3 gusting 4 12.2
2016-Dec-02 12:13 034 1 gusting 4 12.2
2016-Dec-02 12:09 034 1 gusting 4 12.2
2016-Dec-02 12:04 005 1 gusting 4 12.2
2016-Dec-02 11:59 026 3 gusting 4 12.2
2016-Dec-02 11:53 351 2 gusting 5 11.7
2016-Dec-02 11:49 347 4 gusting 5 11.7
2016-Dec-02 11:43 360 2 gusting 4 11.7
2016-Dec-02 11:39 015 1 gusting 4 11.7
2016-Dec-02 11:33 302 1 gusting 5 11.7
2016-Dec-02 11:29 355 3 gusting 5 11.7
2016-Dec-02 11:23 350 2 gusting 4 11.7
2016-Dec-02 11:19 327 0 gusting 4 11.7
2016-Dec-02 11:13 321 2 gusting 4 11.1
2016-Dec-02 11:09 328 11.1
2016-Dec-02 11:04 328 1 gusting 4 11.1
2016-Dec-02 10:59 328 0 gusting 4 11.1
2016-Dec-02 10:54 324 0 gusting 4 10.6
2016-Dec-02 10:49 338 1 gusting 4 10.6
2016-Dec-02 10:43 338 3 gusting 4 10.6
2016-Dec-02 10:39 338 2 gusting 4 10.6
2016-Dec-02 10:33 338 1 gusting 4 10.0
2016-Dec-02 10:29 317 2 gusting 4 10.0
2016-Dec-02 10:24 308 3 gusting 4 10.0
2016-Dec-02 10:19 322 2 gusting 4 9.4
2016-Dec-02 10:13 325 0 gusting 4 9.4
2016-Dec-02 10:09 342 2 gusting 4 10.0
2016-Dec-02 10:03 346 1 gusting 4 9.4
2016-Dec-02 09:59 317 2 gusting 4 8.9
2016-Dec-02 09:54 314 1 gusting 4 8.9
2016-Dec-02 09:49 313 0 gusting 4 8.9
2016-Dec-02 09:43 321 3 gusting 4 8.3
2016-Dec-02 09:39 337 0 gusting 5 8.9
2016-Dec-02 09:34 338 2 gusting 5 8.3
2016-Dec-02 09:24 345 0 gusting 5 7.8
2016-Dec-02 09:18 348 1 gusting 5 7.8
2016-Dec-02 09:14 323 2 gusting 4 7.8
2016-Dec-02 09:09 345 3 gusting 4 7.8
2016-Dec-02 09:04 026 0 gusting 3 7.8
2016-Dec-02 08:54 016 3 gusting 5 7.8
2016-Dec-02 08:49 005 3 gusting 5 7.8
2016-Dec-02 08:44 355 1 gusting 3 7.2
2016-Dec-02 08:39 176 7.2
2016-Dec-02 08:33 175 6.7
2016-Dec-02 08:28 175 6.1
2016-Dec-02 08:24 175 5.6
2016-Dec-02 08:18 175 5.0
2016-Dec-02 08:14 175 5.0
2016-Dec-02 08:08 175 4.4
2016-Dec-02 08:03 175 3.9
2016-Dec-02 07:59 175 3.9
2016-Dec-02 07:53 175 3.9
2016-Dec-02 07:49 175 3.3
2016-Dec-02 07:43 175 3.3
2016-Dec-02 07:39 175 2.8
2016-Dec-02 07:33 175 2.8
2016-Dec-02 07:28 175 2.8
2016-Dec-02 07:24 175 0 gusting 1 2.8
2016-Dec-02 07:18 176 2.8
2016-Dec-02 07:14 175 2.2
2016-Dec-02 07:09 175 2.2
2016-Dec-02 07:03 176 2.2
2016-Dec-02 06:59 175 2.2
2016-Dec-02 06:53 175 2.2
2016-Dec-02 06:48 175 2.2
2016-Dec-02 06:44 176 2.2
2016-Dec-02 06:38 175 2.2
2016-Dec-02 06:33 175 2.2
2016-Dec-02 06:29 176 2.2
2016-Dec-02 06:23 175 2.2
2016-Dec-02 06:19 175 2.2
2016-Dec-02 06:14 176 2.2
2016-Dec-02 06:04 175 2.2
2016-Dec-02 05:59 176 2.2
2016-Dec-02 05:53 175 2.2
2016-Dec-02 05:49 175 2.2
2016-Dec-02 05:43 176 2.2
2016-Dec-02 05:39 176 2.2
2016-Dec-02 05:33 175 2.2
2016-Dec-02 05:29 176 2.2
2016-Dec-02 05:23 175 2.2
2016-Dec-02 05:19 175 0 gusting 3 2.2
2016-Dec-02 05:13 175 2.2
2016-Dec-02 05:09 175 2.2
2016-Dec-02 05:04 176 2.2
2016-Dec-02 04:59 175 2.2
2016-Dec-02 04:54 175 2.2
2016-Dec-02 04:48 175 2.2
2016-Dec-02 04:44 176 2.2
2016-Dec-02 04:39 175 2.2
2016-Dec-02 04:34 175 2.2
2016-Dec-02 04:29 176 2.8
2016-Dec-02 04:24 176 2.8
2016-Dec-02 04:18 176 0 gusting 1 2.8
2016-Dec-02 04:14 176 2.8
2016-Dec-02 04:08 176 2.8
2016-Dec-02 04:04 175 2.8
2016-Dec-02 03:59 175 2.8
2016-Dec-02 03:54 176 2.8
2016-Dec-02 03:49 176 0 gusting 1 2.8
2016-Dec-02 03:43 175 2.8
2016-Dec-02 03:39 176 2.8
2016-Dec-02 03:33 175 0 gusting 2 2.8
2016-Dec-02 03:29 175 0 gusting 2 2.8
2016-Dec-02 03:23 175 0 gusting 3 2.8
2016-Dec-02 03:19 175 0 gusting 3 2.8
2016-Dec-02 03:13 175 2.8
2016-Dec-02 03:09 175 3.3
2016-Dec-02 03:03 175 3.3